Preview of NWS' New Version of Forecast
This preview is not operational and should not be used for support decisions.

Regional Weather Roundup (RWR)

Issued by Gray - Portland, ME (GYX)

                            
000
ASUS41 KGYX 170210
RWRGYX
WEATHER ROUNDUP FOR MAINE AND NEW HAMPSHIRE
NATIONAL WEATHER SERVICE GRAY ME
900 PM EST SAT FEB 16 2019

MEZ002-005-006-010-012-015-018-020-021-024-026-027-029-170300-
MAINE
  
CITY           SKY/WX    TMP DP  RH WIND       PRES   REMARKS
PORTLAND       FAIR      29  16  58 CALM      29.91R                  
SANFORD        FAIR      28  16  60 NW6       29.91R                  
BAR HARBOR     MOCLDY    28  16  60 NW10G18   29.85R WCI  19          
WISCASSET      FAIR      26  13  57 NW10G20   29.91R WCI  16          
ROCKLAND       FAIR      27  15  61 NW9G18    29.88R                  
FRYEBURG       FAIR      22   9  57 CALM      29.91R                  
LEWISTONAUBURN FAIR      23  12  62 N13       29.90R WCI  11          
AUGUSTA        FAIR      22   9  57 NW15      29.88S WCI   9          
WATERVILLE     FAIR      22  10  60 NW9       29.86R                  
BANGOR         FAIR      24  13  62 NW22      29.87R WCI   9          
GREENVILLE       N/A     15   4  61 NW17G26   29.76R WCI  -1          
MILLINOCKET    CLOUDY    21   9  59 NW10G22   29.84R WCI  10          
HOULTON        FAIR      20  12  71 W9G20     29.76R                  
PRESQUE ISLE   FLURRIES  22  13  68 W15G24    29.76R WCI   9          
FRENCHVILLE    CLOUDY    16   5  62 NW20G28   29.72R WCI  -1          
CARIBOU        LGT SNOW  21  15  78 NW13G18   29.73R WCI   9          
$$

NHZ002-005-008-009-011-012-014-170300-
NEW HAMPSHIRE
  
CITY           SKY/WX    TMP DP  RH WIND       PRES   REMARKS
ROCHESTER      FAIR      28  14  55 NW17      29.89R WCI  16          
NASHUA         FAIR      31  17  56 NW10      29.93R                  
MANCHESTER     FAIR      30  16  56 NW12      29.92R                  
CONCORD        FAIR      26  12  55 NW12      29.94R WCI  16          
LACONIA        FAIR      23  11  60 VRB5      29.93R                  
PLYMOUTH       FAIR      22   9  57 NW8       29.96R                  
BERLIN         CLOUDY    19   9  65 CALM      29.88F                  
WHITEFIELD     FAIR      18   8  65 NW7       29.92S                  
JAFFREY        FAIR      27  14  58 MISG      29.89R                  
KEENE          FAIR      28  15  58 NW14      29.94R WCI  17          
LEBANON        FAIR      23   8  52 N8        29.97R                  
MT WASHINGTON  BLWGSNOW  -4  -4 100 NW69G82     N/A  VSB 1/8 WCI -41  
$$

VTZ005-007-008-170300-
VERMONT
  
CITY           SKY/WX    TMP DP  RH WIND       PRES   REMARKS
ST JOHNSBURY     N/A     18   9  68 MISG      29.95R                  
MONTPELIER     CLOUDY    17   8  67 NW5       29.99R                  
BURLINGTON     FAIR      21   8  57 NW13      30.03R WCI   9          
$$

MAZ007-012-024-CTZ003-RIZ002-NYZ038-NYZ072-170300-
SOUTHERN NEW ENGLAND AND NY
  
CITY           SKY/WX    TMP DP  RH WIND       PRES   REMARKS
BOSTON         FAIR      36  16  44 NW10G20   29.92R                  
WORCESTER      FAIR      26  16  65 W9        29.89R                  
NANTUCKET      FAIR      28  24  85 CALM      29.90R                  
PROVIDENCE     FAIR      33  18  53 NW9       29.92R                  
HARTFORD       FAIR      29  15  56 NW6       29.98R                  
ALBANY         FAIR      25  12  58 NW10      30.03R WCI  15          
NEW YORK CITY  FAIR      36  16  44 N16       29.97R                  
$$

ANZ081-ANZ082-ANZ150-NHZ014-MEZ023>029-170300-
COASTAL MARINE OBSERVATIONS
  
STATION/POSITION TIME  TEMP    WIND        PRES    WAVE
                       AIR SEA DIR/SP/G            HT/PER
                 (UTC) (F)     (DEG/KT/KT) (MB)    (FT/S)
MOUNT DESERT ROC 0200   31     290/ 24/ 27 1010.0R
MATINICUS ROCK   0100   32     310/ 23/ 28 1009.7R
ISLE OF SHOALS   0100   34     310/ 20/ 24 1011.6R
JEFFREYS LEDGE   0138      41                N/A     5/ 5
CASHES LEDGE BUO 0150   35 40              1010.9R   4/10
$$

.............KEY..............
   WCI - WIND CHILL
   TC  - TEMPERATURE IN CELSIUS
   VSB - VISIBILITY IN MILES
   HX  - HEAT INDEX
   FAIR- INDICATES FEW OR NO CLOUDS BELOW 12,000 FT, WITH NO 
         SIGNIFICANT WEATHER AND/OR OBSTRUCTIONS TO VISIBILITY.